www.pogodaiklimat.ru

Погода и климат >> Архив погоды >> ОАЭ >> Рай-эль-Хайма аэропорт


ПОГОДА в Рай-эль-Хайма аэропорту

  • Прогноз погоды в Рай-эль-Хайма аэропорту
  • Монитор погоды в Рай-эль-Хайма аэропорту

АРХИВ ПОГОДЫ в Рай-эль-Хайма аэропорту

Время (UTC), дата Ветер
(напр.,м/с)
 
Видим.   Явления Облачность Т
(С)
Тd
(С)
f
(%)
Тe
(С)
Тes
(С)
Комфортность P
(гПа)
Po
(гПа)
Тmin
(С)
Tmax
(С)
R
(мм)
R24
(мм)
S
(см)
15 11.02 В 9 10 км 4/3 1200 м
[Sc Ac trans]
+23.6 +14.3 56 +26 +26 жарко 1013.0 1009.4
18 11.02 В 10 10 км 6/3 1200 м
[Sc Ac trans]
+23.4 +13.9 55 +27 +27 душно 1013.3 1009.7 +23.4
21 11.02 В 8 10 км 6/3 1200 м
[Sc Ac trans]
+23.1 +14.4 58 +27 +27 душно 1012.1 1008.5
00 12.02 ЮВ 6 10 км 6/3 1200 м
[Sc Ac trans]
+22.4 +15.1 63 +26 +26 жарко 1010.7 1007.1
03 12.02 Ю 6 10 км 8/4 1200 м
[Sc As op]
+22.3 +14.2 60 +26 +26 жарко 1011.7 1008.1
06 12.02 ЮЗ 8 2000 м пыльный позёмок {дождь} 9/5 900 м
[Cu Sc As op]
+21.1 +14.9 68 +24 +24 комфорт 1014.9 1011.3 +21.1
09 12.02 ЮЗ 5 6000 м пыль 9/5 1200 м
[Sc As op]
+19.5 +15.5 78 +21 +23 комфорт 1014.6 1010.9
12 12.02 З 9 7000 м пыль 6/3 1200 м
[Sc Ci fib]
+21.9 +8.0 41 +23 +23 комфорт 1014.7 1011.1 0.2
15 12.02 З 5 10 км 3/3 1200 м
[Sc]
+19.0 +8.1 49 +19 +19 1016.7 1013.0
18 12.02 З 3 10 км 1/1 1200 м
[Sc]
+17.9 +8.8 55 +18 +18 1018.8 1015.1 +22.4
21 12.02 Ю 3 10 км 3/1 1200 м
[Sc Ac trans]
+15.2 +9.1 67 +15 +15 1018.6 1014.9
00 13.02 Ю 3 10 км 4/1 1200 м
[Sc Ac trans]
+14.6 +9.0 69 +14 +14 1018.7 1015.0
03 13.02 Ю 4 10 км 4/3 1200 м
[Sc Ac trans]
+13.8 +9.1 73 +12 +12 1020.4 1016.6
06 13.02 Ю 4 10 км 3/3 1200 м
[Sc]
+20.4 +9.9 51 +22 +27 комфорт 1022.5 1018.8 +13.5
09 13.02 нст 1 10 км 3/3 1200 м
[Sc]
+23.9 +5.6 31 +24 +35 комфорт 1020.4 1016.8
12 13.02 СЗ 5 10 км 1/1 1200 м
[Sc]
+23.1 +9.7 43 +25 +27 комфорт 1019.6 1016.0
15 13.02 СЗ 3 10 км ясно +19.4 +9.9 54 +21 +21 комфорт 1020.4 1016.7
18 13.02 Ю 2 10 км ясно +16.2 +9.4 64 +16 +16 1021.2 1017.5 +25.1
21 13.02 Ю 2 <50 м ясно +14.8 +8.7 67 +15 +15 1020.5 1016.8
00 14.02 ЮЗ 3 10 км ясно +12.4 +8.7 78 +11 +11 1019.7 1015.9
03 14.02 Ю 2 8000 м пыль ясно +11.3 +8.1 81 +10 +10 1020.2 1016.4
06 14.02 нст 1 10 км ясно +21.7 +9.3 45 +23 +34 комфорт 1021.6 1017.9 +11.0
09 14.02 нст 1 10 км 1/0
[Ac trans]
+24.4 +4.0 27 +24 +38 комфорт 1019.2 1015.6
12 14.02 С 5 10 км 3/0
[Ci fib]
+23.5 +8.4 38 +24 +26 комфорт 1017.4 1013.8
15 14.02 С 4 10 км 4/0
[Ci fib]
+20.3 +8.3 46 +22 +22 комфорт 1017.6 1013.9
18 14.02 ЮЗ 2 10 км 3/0
[Ci fib]
+16.3 +7.3 55 +17 +17 1019.8 1016.1 +25.6
21 14.02 ЮЗ 2 10 км 3/0
[Ci fib]
+14.4 +7.4 63 +14 +14 1018.9 1015.2
00 15.02 СЗ 1 10 км 3/0
[Ci fib]
+11.9 +7.5 74 +12 +12 1018.5 1014.7
03 15.02 ЮЗ 3 10 км 4/0
[Ac trans Ci fib]
+10.4 +6.8 78 +9 +9 1018.7 1014.9
06 15.02 СВ 3 10 км 4/0
[Ci fib]
+22.4 +4.1 30 +22 +30 комфорт 1020.5 1016.8 +9.9
09 15.02 ЮВ 4 10 км 5/0
[Ac trans Ci fib]
+27.4 +6.2 26 +27 +34 жарко 1017.7 1014.1
12 15.02 СЗ 5 10 км 5/0
[Ci fib]
+26.1 +8.6 33 +26 +28 жарко 1015.9 1012.3
15 15.02 С 3 10 км 6/0
[Ac und]
+23.3 +10.4 44 +25 +25 комфорт 1017.7 1014.1
18 15.02 ЮВ 3 10 км 4/0
[Ac trans]
+21.3 +12.5 57 +24 +24 комфорт 1017.6 1013.9 +28.4
21 15.02 В 2 10 км 4/0
[Ac trans]
+19.1 +11.7 62 +21 +21 комфорт 1017.1 1013.4
00 16.02 В 3 10 км 4/0
[Ac trans]
+17.8 +11.6 67 +18 +18 1016.4 1012.7
03 16.02 ЮВ 3 10 км 5/0
[Ac trans]
+18.1 +11.4 65 +19 +19 1017.4 1013.7
06 16.02 Ю 6 10 км 9/0
[Ac trans]
+25.3 +11.5 42 +27 +29 жарко 1019.1 1015.5 +16.5
09 16.02 Ю 4 10 км 6/0
[Ac trans]
+29.2 +7.8 26 +28 +35 жарко 1015.3 1011.7
12 16.02 С 8 5000 м пыльный позёмок 3/0
[Ac trans]
+25.7 +15.3 53 +29 +29 душно 1013.3 1009.7
15 16.02 С 5 10 км 6/0
[Ac trans]
+23.0 +15.6 63 +27 +27 душно 1014.9 1011.3
18 16.02 ЮВ 2 10 км 5/0
[Ac trans]
+22.5 +15.6 65 +26 +26 жарко 1015.6 1012.0 +31.3
21 16.02 ЮВ 2 10 км 5/3 1200 м
[Sc diur, vesp Ac trans]
+21.3 +16.6 75 +25 +25 комфорт 1015.5 1011.9
00 17.02 В 3 8000 м дождь 4/3 1200 м
[Sc diur, vesp Ac trans]
+21.3 +18.1 82 +26 +26 душно 1013.8 1010.2 0.3
03 17.02 В 5 10 км {гроза, дождь} 9/4 1200 м
[Sc Ac trans]
+21.9 +16.8 73 +26 +26 душно 1014.1 1010.5
06 17.02 С 4 6000 м мгла {дождь} 8/4 900 м
[Sc Ac trans]
+22.1 +19.4 85 +28 +30 душно 1016.5 1012.9 +19.7
09 17.02 ЮЗ 1 8000 м пыль 9/4 1200 м
[Sc As op]
+24.7 +15.7 57 +28 +31 душно 1014.4 1010.8
12 17.02 СЗ 5 10 км {дождь} 9/4 900 м
[Sc As op]
+23.5 +18.2 72 +28 +28 душно 1012.6 1009.0 2
15 17.02 СЗ 2 10 км 9/4 900 м
[Sc As op]
+21.7 +17.1 75 +26 +26 душно 1013.4 1009.8
18 17.02 З 2 10 км 9/4 1200 м
[Sc As op]
+20.3 +16.6 79 +24 +24 комфорт 1014.6 1010.9 +25.4
21 17.02 ЮЗ 2 10 км 9/4 1200 м
[Sc As op]
+18.6 +15.3 81 +20 +20 1014.5 1010.8
00 18.02 ЮЗ 2 10 км 4/0
[Ac trans]
+14.6 +12.0 84 +15 +15 1014.0 1010.3
03 18.02 Ю 4 10 км 8/4 1200 м
[Sc Ac trans]
+14.5 +11.7 83 +13 +13 1015.0 1011.3
06 18.02 ЮЗ 3 10 км 5/3 1200 м
[Sc Ac trans]
+21.5 +11.1 52 +23 +28 комфорт 1015.9 1012.3 +13.2
09 18.02 З 6 10 км 4/3
[Sc diur, vesp Ac trans]
+23.7 +7.4 35 +24 +27 комфорт 1013.2 1009.6

 

Местоположение метеостанции Рай-эль-Хайма аэропорт (ОАЭ): широта 25.62 долгота 55.93 высота над уровнем моря 31 м.

В архиве по умолчанию представлена погода в Рай-эль-Хайма аэропорту за последнюю неделю. Архивные данные за месяц целиком и за предыдущие месяцы, начиная с января 2011 года, Вы можете получить, выбрав интересующий диапазон дат из раскрывающегося списка и нажав кнопку "Ввод!".


*Определитесь, кто Вы:
робот инопланетянин человек

Внимание! Время в таблицах - всемирное. Для получения местного времени необходимо прибавить поправку, которая равна 4 ч.

Смотрите также архив погоды в соседних городах и на ближайших метеорологических станциях:

Погода в Дибе (Оман) (32 км)
Погода в Шардже (ОАЭ) (52 км)
Погода в Эль-Хасаб аэропорту (Оман) (68 км)
Погода в Фуджейре (ОАЭ) (70 км)
Погода в Эль-Хасабе (Оман) (73 км)
Погода в Дубае (ОАЭ) (73 км)
Погода в Аль-Мактум аэропорту (ОАЭ) (111 км)
Погода на Острове Абу-Муса (Иран) (113 км)
Погода на Острове Сирри (Иран) (142 км)
Погода в Сухаре (Оман) (146 км)

Пояснения к столбцам:

Ветер - указаны скорость ветра в м/с - средняя за 10 мин, порывы в срок и между сроками (в фигурных скобках) и направление, откуда дует ветер: С - северный, СВ - северо-восточный, В - восточный, ЮВ - юго-восточный, Ю - южный, ЮЗ - юго-западный, З - западный, СЗ - северо-западный.
Видимость - горизонтальная дальность видимости в метрах или километрах. При видимости от 1 до 10 км при отсутствии осадков обычно наблюдается дымка, при ухудшении видимости до 1 км и менее - туман. В сухую погоду видимость может ухудшаться дымом, пылью или мглою.
Явления - указаны атмосферные явления, наблюдавшиеся в срок или в последний час перед сроком; фигурными скобками обозначены явления, наблюдавшиеся между сроками (за 1-3 часа до срока); квадратными скобками обозначены град или гололедные отложения с указанием их диаметра в мм.
Облачность - указаны через наклонную черту общая и нижняя облачность в баллах и высота нижней границы облаков в метрах; квадратными скобками обозначены формы облаков: Ci - перистые, Cs - перисто-слоистые, Cc - перисто-кучевые, Ac - высококучевые, As - высокослоистые, Sc - слоисто-кучевые, Ns - слоисто-дождевые, Cu - кучевые, Cb - кучево-дождевые. Подробнее классификацию облаков см. в Атласе облаков (PDF).
T - Температура воздуха - температура, измеренная на высоте 2 м над землей.
Td - Температура точки росы - температура, при понижении до которой содержащийся в воздухе водяной пар достигнет насыщения.
f - Относительная влажность воздуха - влажноcть воздуха, измеренная на высоте 2 м над землей.
Te - Эффективная температура - температура, которую ощущает одетый по сезону человек в тени. Характеристика душности погоды. При расчете учитывается влияние влажности воздуха и скорости ветра на теплоощущения человека.
Tes - Эффективная температура на солнце - температура, которую ощущает человек, с поправкой на солнечный нагрев. Характеристика знойности погоды. Зависит от высоты солнца над горизонтом, облачности и скорости ветра. Ночью, в пасмурную погоду, а также при ветре 12 м/с и более поправка равна нулю.
P - Атмосферное давление - приведенное к уровню моря атмосферное давление.
Po - Атмосферное давление - измеренное на уровне метеостанции атмосферное давление.
Tmin - Минимальная температура - минимум температуры воздуха на высоте 2 м над землей.
Tmax - Максимальная температура - максимум температуры воздуха на высоте 2 м над землей.
R - Количество осадков - Количество выпавших осадков за период времени, мм. При наведении курсора мыши на число - период времени, за который выпало указанное количество осадков.
R24 - Количество осадков - Количество выпавших осадков за 24 часа, мм.
S - Снежный покров - Высота снежного покрова, см. При наведении курсора мыши на число - состояние снежного покрова и степень покрытия местности в баллах.